contact:dominique.lefevre@mio.osupytheas.fr, maurice.libes@osupytheas.fr, didier.mallarino@osupytheas.fr
Project:EMSO http://www.emso-fr.org/EMSO-France
Depth: 2436.0 m
Title:EMSO Ligure Ouest : Data MII capteur CSTAR
DateTime,Latitude,Longitude,Instrument_Serial,Reference_Counts,Signal_Counts,Corrected_Signal_raw_counts,Calculated_Beam_c_inverse_meters,Internal_thermistor_counts
DateTime,Latitude,Longitude,Instrument_Serial,Reference_Counts,Signal_Counts,Corrected_Signal_raw_counts,Calculated_Beam_c_inverse_meters,Internal_thermistor_counts
2019-05-25T00:01:27,42.805,6.029,CST-1368DR,9372,13118,15582,0.009,551
2019-05-25T00:04:28,42.805,6.029,CST-1368DR,9372,13115,15578,0.010,551
2019-05-25T00:07:30,42.805,6.029,CST-1368DR,9372,13115,15578,0.010,550
2019-05-25T00:10:31,42.805,6.029,CST-1368DR,9372,13118,15582,0.009,550
2019-05-25T00:13:33,42.805,6.029,CST-1368DR,9372,13115,15578,0.010,550
2019-05-25T00:16:34,42.805,6.029,CST-1368DR,9372,13117,15580,0.009,551
2019-05-25T00:19:35,42.805,6.029,CST-1368DR,9372,13114,15577,0.010,551
2019-05-25T00:22:37,42.805,6.029,CST-1368DR,9372,13115,15578,0.010,550
2019-05-25T00:25:38,42.805,6.029,CST-1368DR,9372,13116,15579,0.009,550
2019-05-25T00:28:40,42.805,6.029,CST-1368DR,9372,13116,15579,0.009,551
2019-05-25T00:31:41,42.805,6.029,CST-1368DR,9372,13111,15573,0.011,551
2019-05-25T00:34:43,42.805,6.029,CST-1368DR,9372,13117,15580,0.009,551
2019-05-25T00:37:44,42.805,6.029,CST-1368DR,9372,13118,15581,0.009,551
2019-05-25T00:40:45,42.805,6.029,CST-1368DR,9372,13117,15580,0.009,551
2019-05-25T00:43:47,42.805,6.029,CST-1368DR,9372,13119,15582,0.009,551
2019-05-25T00:46:48,42.805,6.029,CST-1368DR,9372,13110,15571,0.012,551
2019-05-25T00:49:50,42.805,6.029,CST-1368DR,9372,13116,15579,0.009,551
2019-05-25T00:52:51,42.805,6.029,CST-1368DR,9372,13117,15581,0.009,550
2019-05-25T00:55:52,42.805,6.029,CST-1368DR,9372,13116,15578,0.010,551
2019-05-25T00:58:54,42.805,6.029,CST-1368DR,9372,13112,15574,0.011,551
2019-05-25T01:01:55,42.805,6.029,CST-1368DR,9371,13117,15582,0.009,551
2019-05-25T01:04:57,42.805,6.029,CST-1368DR,9371,13117,15581,0.009,551
2019-05-25T01:07:58,42.805,6.029,CST-1368DR,9371,13114,15579,0.009,551
2019-05-25T01:10:59,42.805,6.029,CST-1368DR,9371,13117,15581,0.009,551
2019-05-25T01:14:01,42.805,6.029,CST-1368DR,9371,13112,15576,0.010,551
2019-05-25T01:17:02,42.805,6.029,CST-1368DR,9371,13117,15581,0.009,551
2019-05-25T01:20:04,42.805,6.029,CST-1368DR,9371,13111,15574,0.011,551
2019-05-25T01:23:05,42.805,6.029,CST-1368DR,9371,13113,15577,0.010,551
2019-05-25T01:26:06,42.805,6.029,CST-1368DR,9371,13117,15581,0.009,551
2019-05-25T01:29:08,42.805,6.029,CST-1368DR,9371,13108,15571,0.012,551
2019-05-25T01:32:09,42.805,6.029,CST-1368DR,9371,13106,15568,0.012,551
2019-05-25T01:35:11,42.805,6.029,CST-1368DR,9371,13110,15573,0.011,551
2019-05-25T01:38:12,42.805,6.029,CST-1368DR,9371,13113,15576,0.010,551
2019-05-25T01:41:14,42.805,6.029,CST-1368DR,9370,13103,15567,0.013,551
2019-05-25T01:44:15,42.805,6.029,CST-1368DR,9370,13102,15565,0.013,551
2019-05-25T01:47:16,42.805,6.029,CST-1368DR,9370,13099,15562,0.014,551
2019-05-25T01:50:18,42.805,6.029,CST-1368DR,9370,13099,15561,0.014,551
2019-05-25T01:53:19,42.805,6.029,CST-1368DR,9370,13094,15555,0.016,550
2019-05-25T01:56:21,42.805,6.029,CST-1368DR,9370,13085,15545,0.018,551
2019-05-25T01:59:22,42.805,6.029,CST-1368DR,9370,13100,15563,0.014,551
2019-05-25T02:02:23,42.805,6.029,CST-1368DR,9370,13107,15571,0.012,550
2019-05-25T02:05:25,42.805,6.029,CST-1368DR,9370,13106,15570,0.012,551
2019-05-25T02:08:26,42.805,6.029,CST-1368DR,9369,13079,15539,0.020,551
2019-05-25T02:11:28,42.805,6.029,CST-1368DR,9369,13082,15543,0.019,551
2019-05-25T02:14:29,42.805,6.029,CST-1368DR,9369,13051,15506,0.028,551
2019-05-25T02:17:30,42.805,6.029,CST-1368DR,9369,13059,15516,0.026,551
2019-05-25T02:20:32,42.805,6.029,CST-1368DR,9369,13084,15545,0.018,551
2019-05-25T02:23:33,42.805,6.029,CST-1368DR,9369,13110,15576,0.010,551
2019-05-25T02:26:35,42.805,6.029,CST-1368DR,9368,13096,15561,0.014,551
2019-05-25T02:29:36,42.805,6.029,CST-1368DR,9368,13054,15511,0.027,551
2019-05-25T02:32:37,42.805,6.029,CST-1368DR,9368,13099,15564,0.013,551
2019-05-25T02:35:39,42.805,6.029,CST-1368DR,9367,13041,15497,0.031,551
2019-05-25T02:38:40,42.805,6.029,CST-1368DR,9368,13086,15550,0.017,551
2019-05-25T02:41:42,42.805,6.029,CST-1368DR,9368,13110,15578,0.010,551
2019-05-25T02:44:43,42.805,6.029,CST-1368DR,9368,13110,15577,0.010,551
2019-05-25T02:47:45,42.805,6.029,CST-1368DR,9368,13110,15578,0.010,551
2019-05-25T02:50:46,42.805,6.029,CST-1368DR,9368,13102,15569,0.012,551
2019-05-25T02:53:47,42.805,6.029,CST-1368DR,9369,13104,15569,0.012,551
2019-05-25T02:56:49,42.805,6.029,CST-1368DR,9369,13100,15564,0.013,551
2019-05-25T02:59:50,42.805,6.029,CST-1368DR,9369,13099,15563,0.014,550
2019-05-25T03:02:52,42.805,6.029,CST-1368DR,9369,13113,15579,0.009,551
2019-05-25T03:05:53,42.805,6.029,CST-1368DR,9369,13112,15578,0.010,551
2019-05-25T03:08:54,42.805,6.029,CST-1368DR,9369,13112,15579,0.009,551
2019-05-25T03:11:56,42.805,6.029,CST-1368DR,9369,13108,15574,0.011,550
2019-05-25T03:14:57,42.805,6.029,CST-1368DR,9369,13109,15575,0.011,551
2019-05-25T03:17:59,42.805,6.029,CST-1368DR,9369,13106,15572,0.011,551
2019-05-25T03:21:00,42.805,6.029,CST-1368DR,9369,13111,15577,0.010,551
2019-05-25T03:24:01,42.805,6.029,CST-1368DR,9369,13099,15563,0.014,551
2019-05-25T03:27:03,42.805,6.029,CST-1368DR,9369,13110,15576,0.010,551
2019-05-25T03:30:04,42.805,6.029,CST-1368DR,9369,13092,15555,0.016,550
2019-05-25T03:33:06,42.805,6.029,CST-1368DR,9369,13093,15556,0.015,551
2019-05-25T03:36:07,42.805,6.029,CST-1368DR,9369,13093,15557,0.015,551
2019-05-25T03:39:08,42.805,6.029,CST-1368DR,9369,13111,15577,0.010,551
2019-05-25T03:42:10,42.805,6.029,CST-1368DR,9369,13115,15582,0.009,551
2019-05-25T03:45:11,42.805,6.029,CST-1368DR,9369,13115,15582,0.009,551
2019-05-25T03:48:13,42.805,6.029,CST-1368DR,9369,13111,15577,0.010,551
2019-05-25T03:51:14,42.805,6.029,CST-1368DR,9369,13113,15579,0.009,551
2019-05-25T03:54:16,42.805,6.029,CST-1368DR,9369,13113,15579,0.009,551
2019-05-25T03:57:17,42.805,6.029,CST-1368DR,9369,13114,15581,0.009,551
2019-05-25T04:00:18,42.805,6.029,CST-1368DR,9369,13113,15580,0.009,550
2019-05-25T04:03:20,42.805,6.029,CST-1368DR,9369,13114,15581,0.009,550
2019-05-25T04:06:21,42.805,6.029,CST-1368DR,9369,13110,15577,0.010,551
2019-05-25T04:09:23,42.805,6.029,CST-1368DR,9369,13113,15580,0.009,550
2019-05-25T04:12:24,42.805,6.029,CST-1368DR,9369,13112,15579,0.009,551
2019-05-25T04:15:25,42.805,6.029,CST-1368DR,9369,13114,15581,0.009,551
2019-05-25T04:18:27,42.805,6.029,CST-1368DR,9369,13109,15575,0.011,551
2019-05-25T04:21:28,42.805,6.029,CST-1368DR,9369,13113,15580,0.009,551
2019-05-25T04:24:30,42.805,6.029,CST-1368DR,9369,13113,15580,0.009,550
2019-05-25T04:27:31,42.805,6.029,CST-1368DR,9369,13112,15579,0.009,551
2019-05-25T04:30:32,42.805,6.029,CST-1368DR,9369,13111,15578,0.010,550
2019-05-25T04:33:34,42.805,6.029,CST-1368DR,9369,13109,15575,0.011,550
2019-05-25T04:36:35,42.805,6.029,CST-1368DR,9369,13112,15579,0.009,551
2019-05-25T04:39:37,42.805,6.029,CST-1368DR,9369,13112,15579,0.009,550
2019-05-25T04:42:38,42.805,6.029,CST-1368DR,9369,13113,15580,0.009,551
2019-05-25T04:45:40,42.805,6.029,CST-1368DR,9369,13112,15579,0.009,551
2019-05-25T04:48:41,42.805,6.029,CST-1368DR,9369,13112,15579,0.009,551
2019-05-25T04:51:42,42.805,6.029,CST-1368DR,9369,13112,15579,0.009,551
2019-05-25T04:54:44,42.805,6.029,CST-1368DR,9369,13112,15579,0.009,551
2019-05-25T04:57:45,42.805,6.029,CST-1368DR,9369,13110,15576,0.010,551
2019-05-25T05:00:47,42.805,6.029,CST-1368DR,9369,13112,15579,0.009,551
2019-05-25T05:03:48,42.805,6.029,CST-1368DR,9369,13111,15577,0.010,551
2019-05-25T05:06:49,42.805,6.029,CST-1368DR,9369,13110,15577,0.010,551
2019-05-25T05:09:51,42.805,6.029,CST-1368DR,9369,13111,15578,0.010,551
2019-05-25T05:12:52,42.805,6.029,CST-1368DR,9369,13112,15579,0.009,551
2019-05-25T05:15:54,42.805,6.029,CST-1368DR,9369,13112,15579,0.009,551
2019-05-25T05:18:55,42.805,6.029,CST-1368DR,9369,13112,15579,0.009,551
2019-05-25T05:21:56,42.805,6.029,CST-1368DR,9368,13112,15580,0.009,550
2019-05-25T05:24:58,42.805,6.029,CST-1368DR,9368,13112,15580,0.009,551
2019-05-25T05:27:59,42.805,6.029,CST-1368DR,9368,13112,15580,0.009,551
2019-05-25T05:31:01,42.805,6.029,CST-1368DR,9368,13113,15581,0.009,551
2019-05-25T05:34:02,42.805,6.029,CST-1368DR,9368,13113,15581,0.009,550
2019-05-25T05:37:03,42.805,6.029,CST-1368DR,9368,13111,15579,0.009,551
2019-05-25T05:40:05,42.805,6.029,CST-1368DR,9368,13113,15581,0.009,551
2019-05-25T05:43:06,42.805,6.029,CST-1368DR,9368,13112,15581,0.009,551
2019-05-25T05:46:08,42.805,6.029,CST-1368DR,9368,13112,15580,0.009,550
2019-05-25T05:49:09,42.805,6.029,CST-1368DR,9368,13112,15581,0.009,551
2019-05-25T05:52:11,42.805,6.029,CST-1368DR,9368,13112,15581,0.009,551
2019-05-25T05:55:12,42.805,6.029,CST-1368DR,9368,13111,15579,0.009,551
2019-05-25T05:58:13,42.805,6.029,CST-1368DR,9368,13112,15580,0.009,551
2019-05-25T06:01:15,42.805,6.029,CST-1368DR,9368,13110,15578,0.010,551
2019-05-25T06:04:16,42.805,6.029,CST-1368DR,9368,13111,15579,0.009,551
2019-05-25T06:07:18,42.805,6.029,CST-1368DR,9368,13111,15579,0.009,551
2019-05-25T06:10:19,42.805,6.029,CST-1368DR,9368,13112,15580,0.009,551
2019-05-25T06:13:20,42.805,6.029,CST-1368DR,9368,13110,15577,0.010,551
2019-05-25T06:16:22,42.805,6.029,CST-1368DR,9368,13112,15581,0.009,551
2019-05-25T06:19:23,42.805,6.029,CST-1368DR,9368,13110,15578,0.010,551
2019-05-25T06:22:25,42.805,6.029,CST-1368DR,9368,13111,15579,0.009,551
2019-05-25T06:25:26,42.805,6.029,CST-1368DR,9368,13111,15579,0.009,551
2019-05-25T06:28:27,42.805,6.029,CST-1368DR,9367,13099,15566,0.013,551
2019-05-25T06:31:29,42.805,6.029,CST-1368DR,9367,13111,15581,0.009,551
2019-05-25T06:34:30,42.805,6.029,CST-1368DR,9368,13110,15578,0.010,551
2019-05-25T06:37:32,42.805,6.029,CST-1368DR,9368,13111,15579,0.009,551
2019-05-25T06:40:33,42.805,6.029,CST-1368DR,9367,13111,15580,0.009,551
2019-05-25T06:43:34,42.805,6.029,CST-1368DR,9367,13111,15581,0.009,551
2019-05-25T06:46:36,42.805,6.029,CST-1368DR,9367,13110,15580,0.009,551
2019-05-25T06:49:37,42.805,6.029,CST-1368DR,9367,13112,15582,0.009,551
2019-05-25T06:52:39,42.805,6.029,CST-1368DR,9367,13112,15581,0.009,551
2019-05-25T06:55:40,42.805,6.029,CST-1368DR,9367,13112,15582,0.009,551
2019-05-25T06:58:42,42.805,6.029,CST-1368DR,9367,13111,15580,0.009,551
2019-05-25T07:01:43,42.805,6.029,CST-1368DR,9367,13111,15580,0.009,551
2019-05-25T07:04:44,42.805,6.029,CST-1368DR,9367,13112,15582,0.009,551
2019-05-25T07:07:46,42.805,6.029,CST-1368DR,9367,13112,15581,0.009,551
2019-05-25T07:10:47,42.805,6.029,CST-1368DR,9367,13110,15579,0.009,551
2019-05-25T07:13:49,42.805,6.029,CST-1368DR,9367,13108,15577,0.010,551
2019-05-25T07:16:50,42.805,6.029,CST-1368DR,9367,13110,15579,0.009,550
2019-05-25T07:19:51,42.805,6.029,CST-1368DR,9367,13110,15580,0.009,551
2019-05-25T07:22:53,42.805,6.029,CST-1368DR,9367,13110,15579,0.009,551
2019-05-25T07:25:54,42.805,6.029,CST-1368DR,9367,13109,15578,0.010,551
2019-05-25T07:28:56,42.805,6.029,CST-1368DR,9367,13109,15579,0.009,550
2019-05-25T07:31:57,42.805,6.029,CST-1368DR,9367,13109,15579,0.009,551
2019-05-25T07:34:58,42.805,6.029,CST-1368DR,9367,13110,15579,0.009,550
2019-05-25T07:38:00,42.805,6.029,CST-1368DR,9367,13109,15578,0.010,551
2019-05-25T07:41:01,42.805,6.029,CST-1368DR,9367,13111,15580,0.009,550
2019-05-25T07:44:03,42.805,6.029,CST-1368DR,9367,13110,15579,0.009,551
2019-05-25T07:47:04,42.805,6.029,CST-1368DR,9367,13109,15578,0.010,551
2019-05-25T07:50:06,42.805,6.029,CST-1368DR,9367,13110,15580,0.009,551
2019-05-25T07:53:07,42.805,6.029,CST-1368DR,9366,13111,15582,0.009,550
2019-05-25T07:56:08,42.805,6.029,CST-1368DR,9366,13110,15581,0.009,551
2019-05-25T07:59:10,42.805,6.029,CST-1368DR,9367,13111,15580,0.009,550
2019-05-25T08:02:11,42.805,6.029,CST-1368DR,9366,13109,15580,0.009,551
2019-05-25T08:05:13,42.805,6.029,CST-1368DR,9367,13110,15580,0.009,551
2019-05-25T08:08:14,42.805,6.029,CST-1368DR,9367,13109,15579,0.009,551
2019-05-25T08:11:15,42.805,6.029,CST-1368DR,9366,13110,15581,0.009,551
2019-05-25T08:14:17,42.805,6.029,CST-1368DR,9366,13110,15580,0.009,551
2019-05-25T08:17:18,42.805,6.029,CST-1368DR,9366,13110,15581,0.009,551
2019-05-25T08:20:20,42.805,6.029,CST-1368DR,9366,13111,15582,0.009,551
2019-05-25T08:23:21,42.805,6.029,CST-1368DR,9366,13109,15580,0.009,551
2019-05-25T08:26:22,42.805,6.029,CST-1368DR,9366,13106,15576,0.010,551
2019-05-25T08:29:24,42.805,6.029,CST-1368DR,9366,13110,15581,0.009,551
2019-05-25T08:32:25,42.805,6.029,CST-1368DR,9366,13110,15581,0.009,551
2019-05-25T08:35:27,42.805,6.029,CST-1368DR,9366,13108,15579,0.009,551
2019-05-25T08:38:28,42.805,6.029,CST-1368DR,9366,13109,15580,0.009,551
2019-05-25T08:41:29,42.805,6.029,CST-1368DR,9366,13110,15581,0.009,550
2019-05-25T08:44:31,42.805,6.029,CST-1368DR,9366,13108,15578,0.010,551
2019-05-25T08:47:32,42.805,6.029,CST-1368DR,9366,13108,15579,0.009,551
2019-05-25T08:50:34,42.805,6.029,CST-1368DR,9366,13103,15573,0.011,551
2019-05-25T08:53:35,42.805,6.029,CST-1368DR,9366,13102,15572,0.011,550
2019-05-25T08:56:37,42.805,6.029,CST-1368DR,9366,13104,15574,0.011,551
2019-05-25T08:59:38,42.805,6.029,CST-1368DR,9366,13108,15579,0.009,551
2019-05-25T09:02:39,42.805,6.029,CST-1368DR,9366,13106,15577,0.010,550
2019-05-25T09:05:41,42.805,6.029,CST-1368DR,9366,13106,15576,0.010,551
2019-05-25T09:08:42,42.805,6.029,CST-1368DR,9366,13108,15579,0.009,551
2019-05-25T09:11:44,42.805,6.029,CST-1368DR,9365,13108,15580,0.009,551
2019-05-25T09:14:45,42.805,6.029,CST-1368DR,9366,13109,15580,0.009,551
2019-05-25T09:17:46,42.805,6.029,CST-1368DR,9366,13109,15580,0.009,551
2019-05-25T09:20:48,42.805,6.029,CST-1368DR,9366,13108,15578,0.010,551
2019-05-25T09:23:49,42.805,6.029,CST-1368DR,9365,13110,15582,0.009,551
2019-05-25T09:26:51,42.805,6.029,CST-1368DR,9366,13110,15580,0.009,551
2019-05-25T09:29:52,42.805,6.029,CST-1368DR,9365,13106,15578,0.010,551
2019-05-25T09:32:53,42.805,6.029,CST-1368DR,9365,13108,15581,0.009,551
2019-05-25T09:35:55,42.805,6.029,CST-1368DR,9365,13109,15581,0.009,551
2019-05-25T09:38:56,42.805,6.029,CST-1368DR,9365,13108,15580,0.009,551
2019-05-25T09:41:58,42.805,6.029,CST-1368DR,9365,13107,15579,0.009,551
2019-05-25T09:44:59,42.805,6.029,CST-1368DR,9365,13107,15578,0.010,551
2019-05-25T09:48:00,42.805,6.029,CST-1368DR,9365,13108,15580,0.009,551
2019-05-25T09:51:02,42.805,6.029,CST-1368DR,9365,13109,15581,0.009,551
2019-05-25T09:54:03,42.805,6.029,CST-1368DR,9365,13108,15580,0.009,551
2019-05-25T09:57:05,42.805,6.029,CST-1368DR,9365,13109,15581,0.009,551
2019-05-25T10:00:06,42.805,6.029,CST-1368DR,9365,13107,15579,0.009,551
2019-05-25T10:03:08,42.805,6.029,CST-1368DR,9365,13106,15578,0.010,551
2019-05-25T10:06:09,42.805,6.029,CST-1368DR,9365,13107,15578,0.010,551
2019-05-25T10:09:10,42.805,6.029,CST-1368DR,9365,13106,15578,0.010,551
2019-05-25T10:12:12,42.805,6.029,CST-1368DR,9365,13103,15574,0.011,551
2019-05-25T10:15:13,42.805,6.029,CST-1368DR,9365,13106,15578,0.010,551
2019-05-25T10:18:15,42.805,6.029,CST-1368DR,9365,13108,15580,0.009,551
2019-05-25T10:21:16,42.805,6.029,CST-1368DR,9365,13106,15578,0.010,551
2019-05-25T10:24:17,42.805,6.029,CST-1368DR,9365,13107,15579,0.009,551
2019-05-25T10:27:19,42.805,6.029,CST-1368DR,9365,13108,15580,0.009,551
2019-05-25T10:30:20,42.805,6.029,CST-1368DR,9365,13104,15575,0.011,551
2019-05-25T10:33:22,42.805,6.029,CST-1368DR,9365,13104,15575,0.011,551
2019-05-25T10:36:23,42.805,6.029,CST-1368DR,9364,13106,15580,0.009,551
2019-05-25T10:39:24,42.805,6.029,CST-1368DR,9365,13107,15579,0.009,551
2019-05-25T10:42:26,42.805,6.029,CST-1368DR,9364,13106,15580,0.009,551
2019-05-25T10:45:27,42.805,6.029,CST-1368DR,9364,13106,15579,0.009,551
2019-05-25T10:48:29,42.805,6.029,CST-1368DR,9364,13107,15581,0.009,551
2019-05-25T10:51:30,42.805,6.029,CST-1368DR,9364,13104,15577,0.010,551
2019-05-25T10:54:32,42.805,6.029,CST-1368DR,9364,13094,15565,0.013,551
2019-05-25T10:57:33,42.805,6.029,CST-1368DR,9364,13093,15564,0.013,551
2019-05-25T11:00:34,42.805,6.029,CST-1368DR,9364,13106,15579,0.009,551
2019-05-25T11:03:36,42.805,6.029,CST-1368DR,9364,13104,15577,0.010,551
2019-05-25T11:06:37,42.805,6.029,CST-1368DR,9364,13104,15577,0.010,551
2019-05-25T11:09:39,42.805,6.029,CST-1368DR,9364,13104,15577,0.010,551
2019-05-25T11:12:40,42.805,6.029,CST-1368DR,9364,13106,15579,0.009,551
2019-05-25T11:15:41,42.805,6.029,CST-1368DR,9364,13105,15578,0.010,551
2019-05-25T11:18:43,42.805,6.029,CST-1368DR,9364,13106,15579,0.009,551
2019-05-25T11:21:44,42.805,6.029,CST-1368DR,9364,13103,15576,0.010,550
2019-05-25T11:24:46,42.805,6.029,CST-1368DR,9364,13104,15576,0.010,551
2019-05-25T11:27:47,42.805,6.029,CST-1368DR,9364,13104,15577,0.010,551
2019-05-25T11:30:48,42.805,6.029,CST-1368DR,9364,13106,15579,0.009,551
2019-05-25T11:33:50,42.805,6.029,CST-1368DR,9364,13106,15579,0.009,551
2019-05-25T11:36:51,42.805,6.029,CST-1368DR,9364,13106,15579,0.009,551
2019-05-25T11:39:53,42.805,6.029,CST-1368DR,9364,13106,15580,0.009,550
2019-05-25T11:42:54,42.805,6.029,CST-1368DR,9364,13106,15579,0.009,551
2019-05-25T11:45:55,42.805,6.029,CST-1368DR,9364,13107,15581,0.009,550
2019-05-25T11:48:57,42.805,6.029,CST-1368DR,9364,13104,15577,0.010,551
2019-05-25T11:51:58,42.805,6.029,CST-1368DR,9364,13105,15578,0.010,551
2019-05-25T11:55:00,42.805,6.029,CST-1368DR,9363,13103,15577,0.010,551
2019-05-25T11:58:01,42.805,6.029,CST-1368DR,9364,13106,15580,0.009,551
2019-05-25T12:01:03,42.805,6.029,CST-1368DR,9364,13106,15579,0.009,551
2019-05-25T12:04:04,42.805,6.029,CST-1368DR,9363,13106,15581,0.009,551
2019-05-25T12:07:05,42.805,6.029,CST-1368DR,9364,13103,15575,0.011,551
2019-05-25T12:10:07,42.805,6.029,CST-1368DR,9363,13106,15581,0.009,551
2019-05-25T12:13:08,42.805,6.029,CST-1368DR,9363,13107,15581,0.009,551
2019-05-25T12:16:10,42.805,6.029,CST-1368DR,9363,13103,15578,0.010,551
2019-05-25T12:19:11,42.805,6.029,CST-1368DR,9363,13100,15573,0.011,551
2019-05-25T12:22:12,42.805,6.029,CST-1368DR,9363,13105,15580,0.009,550
2019-05-25T12:25:14,42.805,6.029,CST-1368DR,9363,13105,15580,0.009,551
2019-05-25T12:28:15,42.805,6.029,CST-1368DR,9363,13107,15581,0.009,551
2019-05-25T12:31:17,42.805,6.029,CST-1368DR,9363,13106,15581,0.009,551
2019-05-25T12:34:18,42.805,6.029,CST-1368DR,9363,13099,15572,0.011,550
2019-05-25T12:37:19,42.805,6.029,CST-1368DR,9363,13106,15581,0.009,551
2019-05-25T12:40:21,42.805,6.029,CST-1368DR,9363,13101,15575,0.011,551
2019-05-25T12:43:22,42.805,6.029,CST-1368DR,9363,13105,15579,0.009,551
2019-05-25T12:46:24,42.805,6.029,CST-1368DR,9363,13106,15581,0.009,551
2019-05-25T12:49:25,42.805,6.029,CST-1368DR,9363,13106,15580,0.009,550
2019-05-25T12:52:26,42.805,6.029,CST-1368DR,9363,13105,15579,0.009,550
2019-05-25T12:55:28,42.805,6.029,CST-1368DR,9363,13104,15579,0.009,551
2019-05-25T12:58:29,42.805,6.029,CST-1368DR,9363,13104,15579,0.009,551
2019-05-25T13:01:31,42.805,6.029,CST-1368DR,9363,13105,15580,0.009,551
2019-05-25T13:04:32,42.805,6.029,CST-1368DR,9363,13105,15580,0.009,551
2019-05-25T13:07:34,42.805,6.029,CST-1368DR,9363,13106,15581,0.009,551
2019-05-25T13:10:35,42.805,6.029,CST-1368DR,9363,13104,15579,0.009,551
2019-05-25T13:13:36,42.805,6.029,CST-1368DR,9363,13100,15574,0.011,551
2019-05-25T13:16:38,42.805,6.029,CST-1368DR,9363,13105,15580,0.009,551
2019-05-25T13:19:39,42.805,6.029,CST-1368DR,9363,13104,15579,0.009,551
2019-05-25T13:22:41,42.805,6.029,CST-1368DR,9363,13104,15579,0.009,551
2019-05-25T13:25:42,42.805,6.029,CST-1368DR,9363,13104,15579,0.009,551
2019-05-25T13:28:43,42.805,6.029,CST-1368DR,9362,13103,15579,0.009,551
2019-05-25T13:31:45,42.805,6.029,CST-1368DR,9362,13103,15579,0.009,551
2019-05-25T13:34:46,42.805,6.029,CST-1368DR,9363,13105,15579,0.009,550
2019-05-25T13:37:48,42.805,6.029,CST-1368DR,9362,13105,15582,0.009,551
2019-05-25T13:40:49,42.805,6.029,CST-1368DR,9362,13104,15579,0.009,551
2019-05-25T13:43:50,42.805,6.029,CST-1368DR,9362,13103,15579,0.009,551
2019-05-25T13:46:52,42.805,6.029,CST-1368DR,9362,13102,15578,0.010,551
2019-05-25T13:49:53,42.805,6.029,CST-1368DR,9362,13103,15579,0.009,551
2019-05-25T13:52:55,42.805,6.029,CST-1368DR,9362,13103,15579,0.009,550
2019-05-25T13:55:56,42.805,6.029,CST-1368DR,9362,13097,15572,0.011,551
2019-05-25T13:58:58,42.805,6.029,CST-1368DR,9362,13104,15579,0.009,550
2019-05-25T14:01:59,42.805,6.029,CST-1368DR,9362,13103,15578,0.010,550
2019-05-25T14:05:00,42.805,6.029,CST-1368DR,9362,13099,15574,0.011,551
2019-05-25T14:08:02,42.805,6.029,CST-1368DR,9362,13101,15576,0.010,551
2019-05-25T14:11:03,42.805,6.029,CST-1368DR,9362,13103,15578,0.010,551
2019-05-25T14:14:05,42.805,6.029,CST-1368DR,9362,13103,15579,0.009,551
2019-05-25T14:17:06,42.805,6.029,CST-1368DR,9362,13102,15577,0.010,551
2019-05-25T14:20:07,42.805,6.029,CST-1368DR,9362,13102,15578,0.010,551
2019-05-25T14:23:09,42.805,6.029,CST-1368DR,9362,13104,15579,0.009,551
2019-05-25T14:26:10,42.805,6.029,CST-1368DR,9362,13103,15578,0.010,551
2019-05-25T14:29:12,42.805,6.029,CST-1368DR,9362,13103,15579,0.009,551
2019-05-25T14:32:13,42.805,6.029,CST-1368DR,9362,13102,15578,0.010,551
2019-05-25T14:35:14,42.805,6.029,CST-1368DR,9362,13103,15579,0.009,551
2019-05-25T14:38:16,42.805,6.029,CST-1368DR,9362,13102,15577,0.010,551
2019-05-25T14:41:17,42.805,6.029,CST-1368DR,9362,13104,15579,0.009,550
2019-05-25T14:44:19,42.805,6.029,CST-1368DR,9362,13102,15578,0.010,551
2019-05-25T14:47:20,42.805,6.029,CST-1368DR,9362,13102,15578,0.010,550
2019-05-25T14:50:21,42.805,6.029,CST-1368DR,9361,13100,15577,0.010,551
2019-05-25T14:53:23,42.805,6.029,CST-1368DR,9361,13103,15580,0.009,551
2019-05-25T14:56:24,42.805,6.029,CST-1368DR,9361,13100,15576,0.010,551
2019-05-25T14:59:26,42.805,6.029,CST-1368DR,9361,13101,15578,0.010,551
2019-05-25T15:02:27,42.805,6.029,CST-1368DR,9361,13100,15576,0.010,551
2019-05-25T15:05:29,42.805,6.029,CST-1368DR,9361,13099,15575,0.011,551
2019-05-25T15:08:30,42.805,6.029,CST-1368DR,9361,13101,15578,0.010,551
2019-05-25T15:11:31,42.805,6.029,CST-1368DR,9361,13099,15575,0.011,551
2019-05-25T15:14:33,42.805,6.029,CST-1368DR,9361,13102,15579,0.009,551
2019-05-25T15:17:34,42.805,6.029,CST-1368DR,9361,13101,15577,0.010,551
2019-05-25T15:20:36,42.805,6.029,CST-1368DR,9361,13101,15578,0.010,551
2019-05-25T15:23:37,42.805,6.029,CST-1368DR,9361,13099,15576,0.010,551
2019-05-25T15:26:38,42.805,6.029,CST-1368DR,9361,13100,15576,0.010,551
2019-05-25T15:29:40,42.805,6.029,CST-1368DR,9361,13101,15577,0.010,551
2019-05-25T15:32:41,42.805,6.029,CST-1368DR,9361,13100,15576,0.010,551
2019-05-25T15:35:43,42.805,6.029,CST-1368DR,9361,13102,15579,0.009,551
2019-05-25T15:38:44,42.805,6.029,CST-1368DR,9361,13098,15574,0.011,551
2019-05-25T15:41:45,42.805,6.029,CST-1368DR,9361,13101,15577,0.010,551
2019-05-25T15:44:47,42.805,6.029,CST-1368DR,9361,13102,15579,0.009,551
2019-05-25T15:47:48,42.805,6.029,CST-1368DR,9361,13102,15579,0.009,551
2019-05-25T15:50:50,42.805,6.029,CST-1368DR,9361,13099,15576,0.010,551
2019-05-25T15:53:51,42.805,6.029,CST-1368DR,9361,13100,15576,0.010,550
2019-05-25T15:56:52,42.805,6.029,CST-1368DR,9361,13102,15579,0.009,551
2019-05-25T15:59:54,42.805,6.029,CST-1368DR,9361,13100,15577,0.010,551
2019-05-25T16:02:55,42.805,6.029,CST-1368DR,9360,13102,15581,0.009,550
2019-05-25T16:05:57,42.805,6.029,CST-1368DR,9361,13101,15578,0.010,551
2019-05-25T16:08:58,42.805,6.029,CST-1368DR,9360,13100,15579,0.009,551
2019-05-25T16:12:00,42.805,6.029,CST-1368DR,9360,13100,15578,0.010,551
2019-05-25T16:15:01,42.805,6.029,CST-1368DR,9360,13099,15577,0.010,551
2019-05-25T16:18:02,42.805,6.029,CST-1368DR,9360,13101,15579,0.009,551
2019-05-25T16:21:04,42.805,6.029,CST-1368DR,9360,13098,15575,0.011,551
2019-05-25T16:24:05,42.805,6.029,CST-1368DR,9360,13101,15579,0.009,551
2019-05-25T16:27:07,42.805,6.029,CST-1368DR,9360,13101,15580,0.009,551
2019-05-25T16:30:08,42.805,6.029,CST-1368DR,9360,13096,15574,0.011,551
2019-05-25T16:33:09,42.805,6.029,CST-1368DR,9360,13098,15575,0.011,551
2019-05-25T16:36:11,42.805,6.029,CST-1368DR,9360,13096,15573,0.011,551